星链-2272 (STARLINK-2272 )

导读 | 豆包AI

STARLINK-2272是美国SpaceX公司星链星座的成员,于2021年3月24日发射入轨。作为星链低轨卫星互联网项目的一部分,它运行在近地轨道,依托相控阵天线技术,为全球提供高速低延迟宽带服务,覆盖偏远及地面网络未覆盖区域。星链项目已大规模部署数千颗同类卫星,在提供普惠网络接入的同时,也引发太空轨道拥堵与天文观测干扰等争议。

Basic Information
目录编号:
48011
目录名称:
STARLINK-2272
国际标识:
2021-024AL
轨道中心:
EARTH
卫星名称:
星链-2272
卫星全名:
星链-2272 (STARLINK-2272 )
卫星状态:
已陨落 最后检测时间 2024-06-23
发射日期:
2021-03-24 UTC
国别 :
美国 (US)
星等 :
--
Orbit Information
数据来源 国际轨道数据
星历时间: 2024-06-23T07:07:53+0800
轨道信息已过期629天
半长轴: 6581.905km
偏心率: 0.0000981
轨道倾角: 53.036°
近地点辐角 302.199°
升交点赤经 210.006°
平近点角 151.382°
近地点: 203.124km
远地点: 204.416km
周期: 88.570分钟
每日圈数: 16.258309
Detailed Information
固有亮度:
5
最大亮度:
2.5
卫星平台:
Starlink V1.0
覆盖范围:
全球
运营商:
太空探索技术公司
运营商所在国:
美国
制造商(研发单位):
太空探索技术公司
制造商所在国:
美国
使用方式:
暂无
Satellite Introduction
星链(Starlink)计划是由太空探索技术公司(SpaceX)提出的一个巨型低轨卫星互联网星座项目,计划在2019年至2024年间在太空搭建由约1.2万颗卫星组成的“星链”网络,其中1584颗将部署在地球上空550千米处的近地轨道,并从2020年开始工作。该卫星已陨落。